Regional Weather Roundup
Issued by NWS Sioux Falls, SD

Current Version | Previous Version | Text Only | Print | Product List | Glossary On
Versions: 1 2 3 4 5 6 7 8 9 10 11 12 13 14 15 16 17 18 19 20 21 22 23 24 25 26 27 28 29 30 31 32 33 34 35 36 37 38 39 40 41 42 43 44 45 46 47 48 49 50
000 ASUS43 KFSD 050510 RWRFSD WEATHER ROUNDUP FOR SE SOUTH DAKOTA/SW MINNESOTA/NW IOWA NATIONAL WEATHER SERVICE SIOUX FALLS SD 1100 PM CST THU MAR 04 2021 NOTE: "FAIR" INDICATES FEW OR NO CLOUDS BELOW 12,000 FEET WITH NO SIGNIFICANT WEATHER AND OR OBSTRUCTIONS TO VISIBILITY. SDZ038>040-050-052>070-050600- SOUTHEAST SOUTH DAKOTA CITY SKY/WX TMP DP RH WIND PRES REMARKS BROOKINGS CLEAR 35 32 88 SE7 30.24S WCI 29 CHAMBERLAIN PTCLDY 37 37 100 E8 30.20R HURON CLEAR 38 35 89 SE8 30.22S MITCHELL PTCLDY 36 33 89 SE8 30.23R SIOUX FALLS PTCLDY 36 31 82 E6 30.25R FOG WINNER CLEAR 40 32 73 SE9 30.18R YANKTON CLEAR 37 36 96 E8 30.23R $$ MNZ071-072-080-081-089-090-097-098-050600- SOUTHWEST MINNESOTA CITY SKY/WX TMP DP RH WIND PRES REMARKS JACKSON CLEAR 32 28 86 SE7 30.29S WCI 26 LUVERNE MOCLDY 32 30 93 SE5 30.27R WCI 27 MARSHALL CLEAR 32 31 96 S9 30.27S WCI 24 MONTEVIDEO CLEAR 34 28 80 S6 30.29R WCI 29 PIPESTONE CLEAR 36 32 87 S13 30.24R REDWOOD FALLS CLEAR 33 28 81 SE8 30.29S WCI 26 TRACY CLEAR 35 30 81 S12 30.26F WCI 27 WINDOM CLEAR 34 27 75 SE9 30.28S WCI 26 WORTHINGTON CLOUDY 33 28 81 SE13 30.27S WCI 24 $$ IAZ001>003-012>014-020>022-031-032-NEZ013-014-SDZ071-050600- NORTHWEST IOWA CITY SKY/WX TMP DP RH WIND PRES REMARKS CHEROKEE CLEAR 33 30 88 SE5 30.28R WCI 28 DENISON CLEAR 34 34 100 E13 30.25S WCI 25 ESTHERVILLE CLEAR 30 28 92 SE7 30.29S WCI 23 LE MARS CLEAR 34 32 93 CALM 30.24S MAURICE FAIR 34 34 100 SE15 30.24S WCI 24 SHELDON CLEAR 32 32 100 SE8 30.24S WCI 25 SIOUX CITY CLEAR 34 32 92 E7 30.24R FOG WCI 28 SPENCER CLEAR 34 27 75 SE13 30.28R WCI 25 STORM LAKE CLEAR 32 32 100 SE15 N/A WCI 22 $$ ABBREVIATIONS USED IN REMARKS TC - TEMPERATURE IN CELSIUS WCI - WIND CHILL INDEX HX - HEAT INDEX VSB - VISIBILITY

USA.gov is the U.S. government's official web portal to all federal, state and local government web resources and services.